Location: Alvis C Story Elementary School
(33.0968°N, 96.6364°W)
Time: 07:52:37
(UTC+00:00)

Cosmos 1602 - Pass Details

Date: 07 July 2022
Orbit: 509 x 526 km, 82.5° (Epoch: 14 August)

Event Time Altitude Azimuth Distance (km) Brightness Sun altitude
Exits shadow 09:18:03 23° 307° (NW) 1,109 5.3 -21.6°
Drops below altitude 10° 09:20:18 10° 340° (NNW) 1,732 6.7 -21.3°
Sets 09:22:41 0° 353° (N) 2,623 7.9 -21.0°
